• In Hungary
  • List of Countries
  • For 7 days
  • Water Temperature
  • Satellite Maps
  • Weather Map
  • News
  • Weather Widgets
  • user-avatar
    Login

    Hourly Weather Newtownards

    Today, 22 January, Monday

    Time Temperature Precipitation Wind Pressure Humidity
    00:00 +3°C° 0 mm 7 mps 746 mmHg 92%
    01:00 +3°C° 0 mm 7 mps 746 mmHg 92%
    02:00 +3°C° 0 mm 7 mps 746 mmHg 92%
    03:00 +3°C° 0 mm 7 mps 746 mmHg 92%
    04:00 +4°C° 0 mm 7 mps 747 mmHg 92%
    05:00 +4°C° 0 mm 7 mps 747 mmHg 91%
    06:00 +4°C° 0 mm 7 mps 747 mmHg 91%
    07:00 +3°C° 0 mm 7 mps 748 mmHg 91%
    08:00 +3°C° 0 mm 7 mps 748 mmHg 91%
    09:00 +3°C° 0 mm 7 mps 749 mmHg 91%
    10:00 +4°C° 0 mm 7 mps 750 mmHg 90%
    11:00 +4°C° 0 mm 7 mps 750 mmHg 90%
    12:00 +4°C° 0 mm 7 mps 751 mmHg 89%
    13:00 +4°C° 0 mm 6 mps 751 mmHg 89%
    14:00 +4°C° 0 mm 6 mps 751 mmHg 88%
    15:00 +4°C° 0 mm 6 mps 752 mmHg 88%
    16:00 +4°C° 0 mm 6 mps 752 mmHg 89%
    17:00 +5°C° 0 mm 5 mps 752 mmHg 90%
    18:00 +3°C° 0 mm 5 mps 752 mmHg 90%
    19:00 +3°C° 0 mm 6 mps 752 mmHg 90%
    20:00 +4°C° 0 mm 6 mps 752 mmHg 90%
    21:00 +4°C° 0 mm 6 mps 752 mmHg 91%
    22:00 +4°C° 0 mm 7 mps 751 mmHg 91%
    23:00 +4°C° 0 mm 7 mps 751 mmHg 92%

    Tomorrow, 23 January, Tuesday

    Time Temperature Precipitation Wind Pressure Humidity
    00:00 +4°C° 0 mm 7 mps 750 mmHg 92%
    01:00 +5°C° 0.1 mm 8 mps 750 mmHg 93%
    02:00 +5°C° 0.1 mm 8 mps 749 mmHg 93%
    03:00 +6°C° 0.1 mm 8 mps 748 mmHg 94%
    04:00 +6°C° 0.1 mm 9 mps 747 mmHg 94%
    05:00 +7°C° 0.1 mm 9 mps 746 mmHg 94%
    06:00 +8°C° 0.1 mm 9 mps 745 mmHg 94%
    07:00 +8°C° 0.2 mm 9 mps 745 mmHg 93%
    08:00 +8°C° 0.2 mm 9 mps 745 mmHg 93%
    09:00 +8°C° 0.2 mm 9 mps 744 mmHg 93%
    10:00 +9°C° 0.1 mm 8 mps 745 mmHg 90%
    11:00 +9°C° 0.1 mm 8 mps 745 mmHg 87%
    12:00 +9°C° 0.1 mm 8 mps 745 mmHg 85%
    13:00 +7°C° 0.1 mm 8 mps 745 mmHg 85%
    14:00 +8°C° 0.1 mm 7 mps 745 mmHg 84%
    15:00 +8°C° 0.1 mm 7 mps 745 mmHg 84%
    16:00 +6°C° 0 mm 7 mps 745 mmHg 86%
    17:00 +6°C° 0 mm 7 mps 745 mmHg 87%
    18:00 +5°C° 0 mm 7 mps 745 mmHg 88%
    19:00 +5°C° 0 mm 7 mps 745 mmHg 89%
    20:00 +5°C° 0 mm 7 mps 744 mmHg 91%
    21:00 +5°C° 0 mm 7 mps 744 mmHg 92%
    22:00 +5°C° 0.7 mm 8 mps 742 mmHg 92%
    23:00 +6°C° 0.7 mm 9 mps 741 mmHg 93%

    Day after tomorrow, 24 January, Wednesday

    Time Temperature Precipitation Wind Pressure Humidity
    00:00 +6°C° 0.7 mm 11 mps 739 mmHg 93%
    01:00 +7°C° 0.8 mm 12 mps 737 mmHg 91%
    02:00 +6°C° 0.8 mm 14 mps 736 mmHg 88%
    03:00 +8°C° 0.8 mm 15 mps 734 mmHg 86%
    04:00 +5°C° 0.5 mm 14 mps 735 mmHg 84%
    05:00 +4°C° 0.5 mm 13 mps 736 mmHg 81%
    06:00 +2°C° 0.5 mm 12 mps 736 mmHg 79%
    07:00 +2°C° 0 mm 12 mps 737 mmHg 78%
    08:00 +2°C° 0 mm 11 mps 738 mmHg 78%
    09:00 +1°C° 0 mm 11 mps 738 mmHg 77%
    10:00 +2°C° 0 mm 11 mps 738 mmHg 76%
    11:00 +3°C° 0 mm 11 mps 738 mmHg 75%
    12:00 +4°C° 0 mm 11 mps 739 mmHg 74%
    13:00 +5°C° 0 mm 10 mps 739 mmHg 73%
    14:00 +5°C° 0 mm 10 mps 739 mmHg 73%
    15:00 +5°C° 0 mm 9 mps 739 mmHg 73%
    16:00 +3°C° 0 mm 9 mps 739 mmHg 74%
    17:00 +2°C° 0 mm 9 mps 739 mmHg 75%
    18:00 +2°C° 0 mm 10 mps 739 mmHg 76%
    19:00 +2°C° 0 mm 10 mps 740 mmHg 75%
    20:00 +1°C° 0 mm 9 mps 740 mmHg 75%
    21:00 +1°C° 0 mm 9 mps 740 mmHg 75%
    22:00 +1°C° 0 mm 9 mps 740 mmHg 75%
    23:00 +1°C° 0 mm 10 mps 739 mmHg 75%

    25 January, Thursday

    Time Temperature Precipitation Wind Pressure Humidity
    00:00 +1°C° 0 mm 10 mps 739 mmHg 74%
    01:00 +1°C° 0 mm 10 mps 739 mmHg 74%
    02:00 +1°C° 0 mm 10 mps 738 mmHg 74%
    03:00 +1°C° 0 mm 10 mps 738 mmHg 74%
    04:00 +1°C° 0 mm 10 mps 737 mmHg 74%
    05:00 +1°C° 0 mm 11 mps 737 mmHg 75%
    06:00 +2°C° 0 mm 12 mps 736 mmHg 75%
    07:00 +2°C° 0.1 mm 12 mps 736 mmHg 75%
    08:00 +2°C° 0.1 mm 12 mps 736 mmHg 75%
    09:00 +2°C° 0.1 mm 12 mps 737 mmHg 76%
    10:00 +2°C° 0.2 mm 11 mps 737 mmHg 75%
    11:00 +2°C° 0.2 mm 11 mps 738 mmHg 75%
    12:00 +3°C° 0.2 mm 11 mps 739 mmHg 74%
    13:00 +3°C° 0.1 mm 10 mps 739 mmHg 75%
    14:00 +3°C° 0.1 mm 10 mps 740 mmHg 75%
    15:00 +3°C° 0.1 mm 9 mps 741 mmHg 76%
    16:00 +3°C° 0.1 mm 9 mps 742 mmHg 78%
    17:00 +2°C° 0.1 mm 9 mps 743 mmHg 79%
    18:00 +2°C° 0.1 mm 9 mps 744 mmHg 81%
    19:00 +2°C° 0 mm 8 mps 745 mmHg 82%
    20:00 +2°C° 0 mm 8 mps 746 mmHg 82%
    21:00 +1°C° 0 mm 8 mps 747 mmHg 83%
    22:00 +1°C° 0 mm 8 mps 748 mmHg 84%
    23:00 +1°C° 0 mm 8 mps 749 mmHg 86%

    26 January, Friday

    Time Temperature Precipitation Wind Pressure Humidity
    00:00 +1°C° 0 mm 8 mps 750 mmHg 87%
    01:00 +2°C° 0 mm 7 mps 750 mmHg 88%
    02:00 +2°C° 0 mm 7 mps 751 mmHg 89%
    03:00 +2°C° 0 mm 6 mps 752 mmHg 90%
    04:00 +2°C° 0 mm 6 mps 753 mmHg 91%
    05:00 +2°C° 0 mm 5 mps 754 mmHg 91%
    06:00 +2°C° 0 mm 5 mps 755 mmHg 92%
    07:00 +2°C° 0 mm 5 mps 756 mmHg 92%
    08:00 +2°C° 0 mm 5 mps 757 mmHg 92%
    09:00 +2°C° 0 mm 5 mps 758 mmHg 92%
    10:00 +3°C° 0 mm 5 mps 759 mmHg 89%
    11:00 +3°C° 0 mm 5 mps 759 mmHg 86%
    12:00 +5°C° 0 mm 4 mps 760 mmHg 82%
    13:00 +5°C° 0 mm 4 mps 760 mmHg 83%
    14:00 +5°C° 0 mm 4 mps 760 mmHg 83%
    15:00 +5°C° 0 mm 3 mps 761 mmHg 83%
    16:00 +4°C° 0 mm 3 mps 761 mmHg 86%
    17:00 +4°C° 0 mm 3 mps 762 mmHg 88%
    18:00 +3°C° 0 mm 3 mps 762 mmHg 91%
    19:00 +3°C° 0 mm 3 mps 762 mmHg 92%
    20:00 +3°C° 0 mm 3 mps 762 mmHg 93%
    21:00 +3°C° 0 mm 3 mps 763 mmHg 94%
    22:00 +3°C° 0.1 mm 3 mps 763 mmHg 93%
    23:00 +3°C° 0.1 mm 3 mps 762 mmHg 92%

    27 January, Saturday

    Time Temperature Precipitation Wind Pressure Humidity
    00:00 +3°C° 0.1 mm 4 mps 762 mmHg 91%
    01:00 +4°C° 0.1 mm 4 mps 762 mmHg 92%
    02:00 +3°C° 0.1 mm 5 mps 762 mmHg 92%
    03:00 +3°C° 0.1 mm 6 mps 762 mmHg 93%
    04:00 +3°C° 0.1 mm 6 mps 762 mmHg 93%
    05:00 +3°C° 0.1 mm 6 mps 762 mmHg 94%
    06:00 +4°C° 0.1 mm 6 mps 761 mmHg 95%
    07:00 +4°C° 0.6 mm 6 mps 761 mmHg 96%
    08:00 +5°C° 0.6 mm 6 mps 761 mmHg 96%
    09:00 +5°C° 0.6 mm 6 mps 761 mmHg 97%
    10:00 +7°C° 0.7 mm 6 mps 762 mmHg 96%
    11:00 +8°C° 0.7 mm 7 mps 762 mmHg 95%
    12:00 +9°C° 0.7 mm 7 mps 762 mmHg 94%
    13:00 +9°C° 0.3 mm 7 mps 762 mmHg 94%
    14:00 +10°C° 0.3 mm 7 mps 762 mmHg 93%
    15:00 +10°C° 0.3 mm 7 mps 762 mmHg 93%
    16:00 +10°C° 0 mm 7 mps 762 mmHg 93%
    17:00 +10°C° 0 mm 7 mps 763 mmHg 93%
    18:00 +10°C° 0 mm 6 mps 763 mmHg 93%
    19:00 +10°C° 0 mm 6 mps 764 mmHg 94%
    20:00 +10°C° 0 mm 6 mps 764 mmHg 94%
    21:00 +10°C° 0 mm 6 mps 764 mmHg 94%
    22:00 +10°C° 0 mm 6 mps 765 mmHg 93%
    23:00 +10°C° 0 mm 6 mps 765 mmHg 93%
    Show more